Location: Boncourt
(49.6160°N, 3.9448°E)
Time: 09:08:52
(UTC+00:00)

Cosmos 44 Rocket - Pass Details

Date: 09 February 2023
Orbit: 646 x 741 km, 65.1° (Epoch: 22 March)

Event Time Altitude Azimuth Distance (km) Brightness Sun altitude
Rises 18:49:28 0° 241° (WSW) 2,970 7.6 -19.3°
Reaches altitude 10° 18:51:51 10° 248° (WSW) 2,071 6.7 -19.7°
Maximum altitude 18:56:18 41° 319° (NW) 968 4.3 -20.4°
Enters shadow 18:59:37 17° 23° (NNE) 1,683 5.1 -20.9°
